Theta_e
311 310 310 309 308 308 308 308 305 304 305 305 306 306 306 306 305 301 300 300 300 298 299 299 299 298 298 297 295 300 304 307 308 301 302 301 301 301 301 301 301 301 301 302 302 300 298 321 323 309 315 324 324 325
311 310 310 309 309 309 309 308 306 304 304 305 305 306 306 305 305 302 296 300 301 300 299 301 303 304 302 301 298 298 303 304 305 306 305 304 302 303 300 299 307 302 306 305 304 304 317 322 323 328 328 325 325 326
311 310 310 309 309 309 309 308 307 305 304 304 305 305 305 304 304 303 299 298 300 300 301 300 304 306 305 305 305 297 302 304 305 309 309 308 303 304 302 303 305 309 310 311 311 316 320 322 324 327 329 330 331 327
311 310 309 309 309 309 309 308 307 305 304 304 305 305 305 304 304 303 299 299 300 299 296 301 307 305 307 305 304 304 303 305 306 307 306 306 304 304 303 303 305 309 312 313 314 318 320 321 323 324 327 332 332 328
310 309 309 309 308 309 308 308 308 306 305 304 304 304 304 304 304 300 301 301 301 300 296 298 303 306 307 305 301 303 304 303 301 301 303 303 304 304 304 308 311 314 312 311 313 319 320 320 323 326 330 330 332 330
309 309 308 308 308 308 308 308 308 306 304 304 304 304 304 304 303 301 302 303 304 303 299 295 302 305 307 306 305 304 304 303 302 300 301 302 303 304 303 307 313 314 317 318 317 322 322 324 325 328 331 330 330 330
308 308 308 308 308 308 308 308 307 306 304 304 304 304 304 305 303 297 300 303 302 302 300 296 299 306 306 305 304 303 303 303 303 300 299 300 302 304 304 303 315 315 317 318 322 323 320 321 325 331 332 331 329 329
308 308 308 308 308 308 308 308 307 305 304 304 304 305 305 303 303 302 306 305 303 300 301 296 299 303 308 303 302 302 302 302 302 301 301 300 300 301 298 304 306 310 316 320 323 319 317 322 328 329 330 328 325 325
307 308 308 308 307 308 308 307 305 305 304 304 304 302 301 301 302 304 308 305 304 302 298 298 297 299 307 304 303 303 303 299 302 300 300 300 298 295 298 303 307 307 312 312 317 315 316 318 321 324 325 323 322 321
305 306 307 307 306 307 307 306 305 304 304 302 299 300 299 303 305 309 303 301 302 301 300 296 300 300 305 304 304 304 304 300 297 300 301 299 298 304 308 308 309 310 311 312 314 313 313 314 314 315 315 317 317 317
306 306 306 305 306 307 306 305 305 303 299 298 298 299 301 302 304 302 297 297 298 295 298 297 297 300 304 303 304 305 303 303 297 298 297 296 299 305 308 309 311 312 313 313 315 315 315 314 314 315 315 317 319 320
306 306 306 306 307 306 306 305 304 298 298 297 297 298 299 301 298 295 294 296 295 294 299 299 300 300 303 309 305 304 301 301 294 304 300 296 304 307 308 309 310 311 312 312 313 313 313 313 314 314 314 315 316 318
306 306 306 306 307 306 306 305 302 300 298 300 298 297 297 295 287 288 287 292 294 299 302 302 300 302 307 308 304 302 297 297 304 300 298 301 307 309 309 310 310 311 310 310 310 311 311 311 312 313 313 315 315 316
306 306 306 306 306 306 305 304 303 301 297 296 294 285 290 289 291 293 294 296 300 302 304 305 305 304 306 303 302 296 300 302 296 294 296 303 306 308 309 309 308 307 308 309 309 310 310 311 311 312 313 314 314 313
306 306 306 306 306 305 305 305 302 300 298 295 295 288 290 295 297 298 299 299 303 307 306 304 303 303 302 300 300 299 296 294 297 297 302 306 308 307 306 307 308 308 308 308 310 309 310 311 312 313 314 315 314 314
306 306 305 306 306 305 305 302 298 298 297 296 295 293 297 295 297 298 300 300 304 307 305 303 300 298 296 297 296 295 294 294 299 304 308 309 308 307 307 308 308 308 308 310 310 310 311 312 313 314 315 315 314 315
305 301 306 305 305 304 301 297 296 293 295 294 295 298 298 297 297 299 303 304 307 304 301 300 295 294 299 296 294 299 298 302 304 307 308 308 306 307 308 308 309 309 310 310 310 312 313 314 315 314 311 313 314 313
301 304 305 305 302 300 298 297 295 293 290 295 294 297 298 301 302 303 305 306 304 303 302 299 301 297 296 294 297 302 305 306 307 307 307 307 308 309 308 309 310 310 311 312 312 313 313 313 312 312 313 311 311 311
302 303 304 303 300 296 291 293 297 292 294 296 297 298 299 302 305 306 303 303 303 303 302 300 296 296 299 303 303 304 305 306 305 306 306 307 309 309 310 309 310 310 311 312 313 312 312 312 312 312 312 312 311 311
304 304 303 302 301 298 294 294 298 294 294 298 300 300 301 302 304 303 302 301 300 301 299 298 299 303 305 305 306 306 307 307 306 303 305 308 311 311 308 309 310 310 311 310 311 306 311 311 311 311 310 309 309 308
302 302 302 301 299 298 296 296 294 297 298 298 302 301 301 303 301 300 300 300 301 299 298 303 305 306 305 306 308 308 307 307 305 304 303 304 309 307 308 311 310 310 309 309 309 308 307 309 309 310 310 310 311 310
301 301 299 299 295 297 296 299 297 300 299 299 300 299 299 299 298 298 297 299 299 300 302 303 304 305 305 304 305 305 306 307 308 307 302 303 304 307 308 309 309 308 307 307 309 308 307 309 310 310 310 308 307 310
302 301 299 296 292 291 292 301 296 297 295 295 297 296 296 297 297 298 296 297 299 301 303 303 303 303 304 306 306 307 307 307 306 306 307 308 310 311 310 309 308 307 305 305 311 312 309 303 305 306 307 307 308 310
302 296 293 293 292 289 296 295 296 294 294 294 294 292 293 295 297 295 293 295 299 301 302 302 304 305 306 305 304 307 307 308 307 308 310 306 306 306 307 306 310 311 311 311 310 310 309 309 302 307 307 306 306 309
290 288 290 286 291 291 290 290 290 292 290 292 291 291 293 295 292 290 291 296 299 302 303 304 305 303 303 304 304 306 308 308 309 307 307 307 306 305 307 310 310 311 312 310 309 309 309 311 311 311 310 310 308 308
284 290 290 293 293 291 290 288 288 289 290 290 292 295 295 294 288 288 294 299 300 302 304 306 303 305 304 305 305 306 309 312 311 308 308 310 310 309 308 308 308 309 313 313 313 312 311 311 311 310 311 309 299 308
286 289 295 296 296 294 293 294 294 293 289 290 293 293 293 288 288 294 300 303 303 306 308 309 308 305 305 306 309 311 313 313 313 312 313 313 313 313 312 311 310 314 314 313 313 313 311 311 310 310 310 311 313 311
292 294 290 293 294 295 292 293 292 291 293 296 296 291 290 291 292 300 303 305 306 308 310 309 309 309 310 310 311 311 311 312 309 311 313 314 315 315 315 315 314 295 309 311 312 314 314 312 309 309 308 310 311 313
292 295 295 290 292 293 293 293 294 297 300 298 294 294 296 300 303 304 306 308 309 309 307 307 308 310 311 312 313 313 314 314 308 308 308 308 309 311 312 310 310 310 311 310 294 301 310 310 311 312 310 312 313 313
292 295 293 293 292 291 296 299 298 302 303 302 302 301 302 304 306 309 308 307 307 306 308 310 311 311 311 312 312 312 313 312 313 309 306 306 307 310 310 311 312 312 312 311 311 310 296 307 303 310 308 311 311 310
297 295 294 295 294 298 300 303 305 305 304 303 304 301 301 303 305 308 308 310 311 311 310 310 311 312 311 311 312 311 311 312 311 313 312 310 311 310 310 311 312 312 312 312 311 309 309 308 309 309 310 309 309 306
297 295 294 295 297 302 305 302 302 301 302 301 300 302 303 303 302 306 311 311 310 309 307 309 310 311 312 313 313 311 299 310 310 311 312 311 309 311 311 312 312 311 310 310 310 311 310 309 310 310 309 307 307 307
300 300 300 299 298 298 300 300 300 299 301 300 301 303 303 303 301 307 311 312 312 311 311 311 312 312 312 312 311 309 302 307 298 291 295 295 295 300 310 312 312 313 312 312 312 311 309 308 309 308 308 307 306 305
Wind_Speed
18 17 15 13 11 9 6 3 1 3 5 8 10 12 13 15 16 5 1 4 4 2 5 3 2 2 2 1 3 5 3 1 4 3 1 2 0 2 2 2 2 2 2 2 3 2 4 5 3 4 2 3 2 5
19 17 16 14 12 9 7 5 3 1 3 5 8 10 12 13 14 7 1 2 3 3 4 3 7 11 8 7 3 2 2 2 3 1 1 1 2 1 1 3 1 2 3 1 3 2 2 2 6 4 2 5 2 5
20 18 17 15 12 10 8 7 5 3 1 4 6 9 10 11 12 8 2 3 3 3 4 4 1 2 2 8 5 2 0 2 1 2 1 1 4 2 1 3 0 2 1 0 3 2 2 3 3 3 4 5 2 4
20 19 17 15 12 10 8 7 7 5 2 3 5 7 9 10 11 9 3 1 2 1 3 1 4 1 2 3 6 4 3 1 0 1 1 1 1 2 1 3 1 2 1 1 3 4 3 3 0 5 6 3 4 7
21 19 16 14 11 10 8 7 7 5 4 3 5 6 9 10 11 4 1 0 2 4 3 4 9 1 4 4 4 2 2 1 1 1 2 1 1 2 1 2 2 2 3 3 2 1 2 2 1 3 2 5 5 9
19 17 15 13 11 10 9 8 8 6 4 3 5 6 8 9 9 3 2 2 1 2 3 2 4 3 4 4 5 4 3 3 2 1 1 0 1 3 1 1 1 4 5 5 3 4 2 2 3 1 3 5 7 9
17 15 13 12 10 10 9 8 9 6 4 3 5 6 7 6 2 2 3 3 2 3 2 3 3 2 4 2 2 1 3 2 2 1 1 2 0 3 1 3 5 3 2 4 4 5 2 2 2 2 4 6 7 8
13 12 12 11 11 10 9 10 8 6 4 4 7 7 9 5 3 3 0 6 7 3 2 2 2 2 3 1 2 2 1 0 2 1 1 1 2 2 3 3 6 6 3 5 6 0 5 2 4 5 5 5 5 6
14 13 11 11 11 10 10 10 8 6 4 4 8 7 1 1 1 2 7 12 2 3 2 1 2 2 2 1 0 2 1 2 1 2 1 2 2 4 2 6 8 5 4 5 4 1 1 3 4 3 4 4 4 4
13 11 11 11 10 10 12 10 8 5 2 4 3 2 2 2 4 5 3 2 2 1 1 3 0 2 2 0 2 2 1 1 3 2 1 3 1 3 6 7 9 9 9 6 6 5 2 2 4 5 5 5 5 5
15 15 14 13 12 12 11 10 8 5 2 0 1 1 2 6 3 0 1 2 2 3 4 3 4 2 2 3 2 1 1 1 3 3 3 2 3 3 6 7 7 7 6 4 5 7 6 5 4 5 5 6 6 6
16 15 14 13 13 13 11 10 8 2 1 1 1 0 2 1 1 2 1 1 4 2 3 3 1 4 1 1 2 2 1 2 2 2 3 3 3 3 3 6 8 9 10 11 9 8 7 6 6 5 5 5 5 5
17 16 14 14 14 14 13 12 7 6 5 2 1 2 1 1 2 4 4 3 3 2 1 1 2 1 3 3 2 2 4 1 1 3 1 1 4 2 2 4 4 7 8 8 7 7 6 6 6 6 8 7 8 8
19 17 16 16 16 14 13 12 9 4 1 1 2 3 3 3 4 4 2 1 2 2 2 1 1 2 1 3 2 3 2 2 2 2 1 3 4 3 2 4 5 7 8 8 8 7 8 7 8 8 9 9 10 11
17 19 19 18 18 15 13 11 8 1 1 2 3 3 4 3 3 3 3 3 2 2 2 2 2 1 1 2 1 1 3 3 2 3 2 3 4 1 2 5 6 8 8 9 9 9 10 9 8 9 8 8 9 10
17 17 10 23 19 17 14 9 2 1 1 1 2 2 2 2 2 2 2 3 1 1 1 2 2 2 2 0 3 2 2 2 3 2 3 3 2 2 4 6 6 7 8 8 8 8 9 9 9 9 10 9 9 9
14 1 24 23 19 16 9 2 2 3 1 2 2 3 3 4 4 2 1 1 0 2 2 2 5 2 2 2 1 1 1 3 4 4 3 0 3 5 6 7 7 8 8 8 8 8 8 8 8 8 9 7 5 6
4 19 25 22 13 6 1 0 1 1 2 2 3 1 2 3 3 2 1 1 2 1 2 1 2 2 1 2 2 3 2 3 1 1 2 2 4 5 5 7 8 7 8 8 7 5 4 4 4 3 2 1 2 3
15 14 20 15 4 2 3 2 2 2 3 1 3 2 2 2 2 2 2 2 2 2 2 2 2 1 2 1 1 3 3 1 1 2 3 4 4 4 5 5 6 5 4 3 2 2 2 4 4 3 2 2 2 3
20 16 11 4 1 1 3 2 1 2 2 1 2 1 1 1 1 1 2 2 1 2 1 1 1 1 1 2 1 2 2 1 2 4 3 1 2 4 4 3 3 3 2 2 3 4 3 3 3 3 3 4 3 4
12 6 6 4 2 2 0 1 3 2 1 1 0 0 2 1 0 1 3 4 1 1 1 1 1 2 1 0 1 1 2 2 2 2 3 4 4 3 2 2 2 2 2 2 3 3 4 3 3 3 3 3 3 2
4 2 1 1 2 1 2 2 2 1 2 1 1 1 2 1 1 2 4 2 1 1 0 1 1 1 2 3 2 3 4 4 4 4 6 6 3 1 1 1 1 3 2 3 3 4 3 3 3 3 3 3 4 4
4 3 2 0 2 0 1 2 2 2 1 2 0 1 2 2 3 3 2 1 2 1 1 1 2 2 4 5 4 5 5 5 4 3 3 1 2 2 2 2 2 3 4 3 3 5 4 3 4 3 2 3 3 6
5 3 2 1 2 1 0 1 1 2 2 1 1 2 1 2 3 1 3 2 2 1 2 3 2 3 2 3 3 3 2 3 3 1 1 3 3 3 3 3 4 5 6 5 4 4 5 5 3 3 3 4 4 5
1 1 0 2 1 1 1 2 3 2 2 2 0 1 0 1 1 2 2 3 2 3 3 2 2 2 2 2 2 1 2 1 3 4 2 3 5 5 5 5 5 4 3 4 4 4 3 2 1 3 4 5 5 6
1 1 1 1 1 1 1 2 2 2 1 1 0 1 1 1 1 3 2 2 2 1 1 2 2 2 1 1 0 1 1 1 4 5 4 4 3 5 6 6 5 3 3 2 1 2 4 4 4 3 4 2 2 2
0 2 2 1 1 1 2 1 1 2 3 2 1 3 2 2 3 3 2 2 2 1 1 1 2 2 2 2 2 1 2 2 1 4 4 4 3 2 1 1 0 1 2 4 5 6 6 5 5 3 3 1 2 3
2 2 3 2 1 0 2 2 3 4 3 2 2 5 3 3 2 1 2 1 2 2 2 1 2 2 2 2 1 2 2 2 3 3 3 2 3 3 4 3 2 1 2 2 5 5 5 4 3 3 1 3 3 3
1 2 2 3 2 3 3 3 2 2 2 3 2 2 2 2 1 1 1 1 1 3 4 3 3 3 3 3 3 3 3 3 4 6 6 4 3 4 3 3 3 3 2 2 4 2 3 4 2 1 2 1 2 2
3 3 3 4 3 4 2 5 2 2 2 3 2 1 2 1 1 1 1 2 3 3 4 3 3 3 1 1 1 2 3 4 4 2 3 4 3 3 4 3 3 2 1 1 1 2 2 4 2 1 3 3 2 2
4 3 2 2 3 3 3 3 3 2 1 2 3 2 1 0 1 1 2 3 5 4 3 3 2 2 2 2 2 3 1 2 3 5 4 1 3 3 3 3 3 3 3 4 4 4 4 5 4 4 3 3 2 2
4 4 3 2 1 1 1 0 0 0 1 0 1 2 3 5 6 4 3 4 3 4 5 4 4 3 3 3 3 3 3 3 3 4 6 5 3 2 3 3 3 4 5 5 5 5 5 5 3 0 1 2 2 2
1 1 2 2 2 2 1 1 2 2 1 4 3 2 2 2 3 4 2 7 8 7 4 3 3 3 3 3 1 3 2 4 6 8 8 7 6 4 2 1 2 1 1 2 2 2 2 2 2 2 2 3 3 3
Wind_Direction
195 194 200 201 208 221 220 214 266 8 8 9 4 4 2 7 6 9 35 354 331 312 285 233 284 320 1 6 5 340 273 41 357 60 321 98 132 65 115 53 41 92 119 125 129 117 192 8 226 189 21 315 306 178
191 192 196 195 204 208 212 208 200 258 351 359 359 359 2 4 2 18 327 18 326 244 303 299 271 276 266 268 277 321 351 319 12 327 63 165 140 90 353 132 72 154 351 25 261 54 15 351 307 334 265 300 180 170
187 191 191 194 196 196 203 205 199 218 293 336 345 353 358 357 360 16 313 327 268 293 262 276 318 69 201 218 220 286 246 300 68 346 346 49 83 293 97 77 207 99 125 214 238 135 260 296 324 275 23 311 303 171
185 189 187 190 190 194 195 206 199 207 227 304 334 345 349 351 351 350 301 37 291 354 299 358 341 302 346 205 198 232 306 360 283 256 320 21 96 262 89 59 270 28 305 107 280 251 249 220 330 350 343 12 101 119
180 184 184 184 186 193 196 203 202 200 219 278 321 336 343 347 346 344 193 148 291 318 321 303 308 360 343 161 168 171 206 249 9 337 332 46 31 184 86 223 179 183 156 224 268 215 352 110 15 322 340 69 94 135
173 178 177 178 185 195 202 200 193 201 217 272 306 321 334 343 353 257 207 143 195 294 290 309 355 299 349 72 68 51 49 63 62 354 11 287 353 287 163 147 220 213 208 240 325 164 241 348 335 270 133 96 84 90
162 170 174 179 182 198 198 189 186 192 209 265 290 305 315 326 350 290 357 46 169 309 288 298 329 59 324 12 80 70 38 44 3 79 266 312 81 315 233 189 166 183 237 213 175 152 164 173 79 83 99 74 79 76
163 176 175 176 180 191 189 175 173 188 214 269 292 300 307 312 219 254 212 239 199 285 275 305 282 257 3 187 174 2 116 60 48 16 196 248 157 308 240 356 333 313 308 199 191 205 305 95 127 105 98 93 72 56
181 170 172 173 175 186 177 167 172 189 231 288 301 306 144 125 173 51 96 120 185 290 309 253 278 124 357 98 66 150 301 201 57 242 205 247 152 220 334 318 309 321 294 327 228 275 177 184 139 115 115 91 71 41
166 176 174 175 181 181 163 167 174 184 248 319 272 204 121 84 328 140 186 216 202 199 230 254 146 247 273 188 156 208 179 162 208 97 175 245 214 324 336 312 295 297 284 275 209 195 168 105 61 39 40 32 20 14
177 176 174 178 180 163 159 164 165 148 119 175 219 93 352 321 197 195 206 236 169 229 189 241 235 280 160 243 182 312 172 159 224 122 248 189 194 78 22 40 31 43 70 88 83 80 73 70 60 39 26 15 11 9
177 175 174 173 166 157 160 157 147 137 114 113 73 151 259 161 96 221 222 212 225 256 180 231 207 217 167 228 237 142 254 211 197 130 216 204 115 107 62 41 39 41 51 59 51 52 44 41 29 9 346 335 335 332
180 171 177 172 166 163 163 159 152 131 132 157 159 108 99 100 103 211 188 191 229 198 195 234 204 226 163 199 113 223 219 205 178 213 147 45 137 141 49 26 32 26 23 20 11 8 354 341 330 321 310 305 309 305
192 177 171 170 164 161 159 154 169 144 155 157 158 112 198 174 230 207 230 245 24 268 318 250 224 270 346 194 99 235 93 223 230 210 124 151 161 130 6 356 353 351 354 345 339 333 323 315 308 306 298 301 298 294
176 175 171 163 157 155 153 158 151 110 204 144 163 172 211 252 266 268 259 268 221 265 221 171 145 222 194 167 234 161 203 214 217 119 110 134 140 141 319 325 337 332 330 326 323 318 315 313 307 301 298 302 295 289
161 151 167 148 152 150 144 132 122 203 168 194 184 218 215 279 272 255 237 262 233 172 178 226 91 32 249 299 200 212 244 243 106 117 112 137 135 295 304 313 312 307 300 296 293 291 291 291 288 292 298 292 295 297
147 58 150 142 141 131 127 123 165 184 237 207 211 228 266 278 272 280 286 284 214 206 223 159 175 198 131 180 182 234 320 79 128 129 120 75 318 318 312 305 304 299 296 292 287 277 277 285 288 290 287 302 317 338
141 126 130 128 124 130 105 199 174 173 226 228 250 98 198 250 281 269 269 268 240 193 225 104 132 166 156 201 185 136 139 119 114 50 333 310 303 298 290 294 300 289 284 289 285 279 280 296 291 316 323 332 321 328
116 125 131 128 127 126 150 162 245 234 235 262 256 247 247 275 253 305 317 291 245 273 190 175 133 169 153 159 140 138 141 132 8 333 306 298 292 295 310 304 304 305 306 330 20 60 59 42 20 11 13 348 349 354
122 120 113 92 253 152 130 130 225 247 248 104 241 243 280 328 21 315 316 5 234 222 160 100 85 83 97 107 126 99 94 61 340 310 319 333 332 332 313 307 332 330 12 52 59 40 55 49 39 30 23 27 23 17
100 74 48 19 18 36 360 178 215 241 292 253 25 353 80 149 165 11 5 345 284 55 158 118 98 110 119 233 263 277 250 241 265 259 285 296 309 286 281 335 347 357 45 62 60 53 38 38 33 38 32 44 49 40
83 100 73 357 344 328 269 224 285 336 251 55 126 10 72 106 35 27 316 262 260 62 220 189 160 204 251 267 273 252 279 276 269 261 253 258 252 219 113 2 59 69 58 58 71 68 49 46 60 64 65 41 23 48
115 27 12 343 319 342 318 192 252 16 150 66 90 87 52 22 13 311 280 292 302 286 262 255 277 270 274 292 283 274 248 242 255 256 263 209 131 94 79 78 77 96 89 52 81 91 79 53 44 34 34 27 38 72
152 211 259 237 213 328 273 69 36 31 73 67 73 113 45 353 336 333 282 277 266 265 223 231 242 280 232 245 265 278 258 222 235 188 107 117 104 70 75 90 117 108 97 115 107 98 96 96 111 86 64 64 55 51
320 332 246 311 221 260 120 57 37 50 70 42 108 150 239 324 319 285 253 277 243 242 245 233 227 211 272 294 298 291 36 131 145 124 57 104 120 120 123 118 106 107 136 130 120 117 120 130 84 41 46 48 57 64
62 27 9 13 64 354 77 103 105 109 121 226 256 82 176 240 263 249 249 253 240 244 235 213 189 199 221 246 234 147 94 130 138 124 139 162 163 126 125 130 137 148 209 248 209 280 297 294 290 305 292 282 146 4
84 135 103 24 17 119 131 100 134 201 192 209 189 187 212 243 250 240 257 222 237 236 221 201 174 182 186 193 215 193 136 160 81 102 132 166 173 150 108 80 61 65 210 236 243 249 262 289 303 302 283 338 148 193
210 185 180 136 251 275 285 213 196 209 215 210 189 199 220 216 251 226 235 228 231 216 196 192 212 202 194 210 140 145 162 181 151 164 163 182 214 227 242 266 296 6 225 240 240 237 244 249 277 351 7 82 127 196
181 179 170 200 256 228 237 228 217 223 210 187 205 224 237 229 240 250 281 227 170 150 132 162 202 229 238 230 223 222 222 200 182 180 197 190 194 171 173 171 152 136 106 90 79 359 245 214 216 74 148 173 194 198
185 170 191 212 226 232 235 193 217 238 214 189 202 291 255 266 282 252 103 93 128 172 192 176 149 194 176 273 242 214 195 210 223 232 190 192 189 132 173 186 184 147 156 238 246 139 184 194 148 225 267 253 275 274
135 177 234 231 246 228 227 233 241 224 207 203 190 242 246 147 350 253 210 209 200 193 202 204 203 219 269 293 297 296 261 162 246 244 244 285 188 191 205 216 230 236 243 258 265 256 252 251 251 279 282 296 339 295
171 194 234 224 53 52 176 87 104 26 20 113 150 193 162 132 127 189 210 193 216 236 234 240 253 259 240 267 266 249 245 294 280 251 226 212 237 255 272 267 257 249 252 260 268 274 272 263 287 9 78 81 67 59
32 204 217 189 200 177 187 177 83 113 42 84 95 161 156 181 188 205 177 210 220 228 230 229 256 270 275 287 175 128 109 79 66 50 61 63 61 41 11 35 61 47 36 10 24 50 100 89 75 74 65 52 44 32